User: anonymous   Login
Location: Norwich
(52.6280°N, 1.3030°E)
Time: 12:30:40
(UTC+00:00)
Language:

Meteor 1-22 Rocket - Orbit

View from above orbital plane
View from above orbital plane
View from above satellite
View from above satellite

Ground track
Ground track

The orbit data is extracted from the following two-line orbital elements,

1 08294U 75087B   17055.20298244 -.00000254  00000-0 -14738-3 0  9998
2 08294  81.2131 132.7474 0105981   1.5656 358.5824 14.08571796128943
Epoch (UTC): 24 February 2017 04:52:17
Eccentricity: 0.0105981
inclination: 81.2131°
perigee height: 787 km
apogee height: 941 km
right ascension of ascending node: 132.7474°
argument of perigee: 1.5656°
revolutions per day: 14.08571796
mean anomaly at epoch: 358.5824°
orbit number at epoch: 12894

The dashed part of the orbit path shows where the satellite is in the earth's shadow,  

DLR